User: anonymous
Location: Caltech
(34.1382°N, 118.1253°W)
Time: 06:03:00
(UTC-07:00)
Language:

RESURS DK-1 - Orbit

View from above orbital plane
View from above orbital plane
View from above satellite
View from above satellite

Ground track
Ground track

The orbit data is extracted from the following two-line orbital elements,

1 29228U 06021A   14293.15785749  .00001165  00000-0  98880-4 0  3463
2 29228 069.9382 046.8845 0003858 352.1495 066.4787 15.00887152462322
Epoch (UTC): 20 October 2014 03:47:18
Eccentricity: 0.0003858
inclination: 69.9382°
perigee height: 561 km
apogee height: 567 km
right ascension of ascending node: 46.8845°
argument of perigee: 352.1495°
revolutions per day: 15.00887152
mean anomaly at epoch: 66.4787°
orbit number at epoch: 46232

The dashed part of the orbit path shows where the satellite is in the earth's shadow,  

DLR